User: anonymous
Location: Albany
(35.0000°S, 118.0000°E)
Time: 19:50:48
(UTC-04:00)
Language:

Radarsat Rocket - Orbit

View from above orbital plane
View from above orbital plane
View from above satellite
View from above satellite

Ground track
Ground track

The orbit data is extracted from the following two-line orbital elements,

1 23711U 95059B   14202.84871359  .00000074  00000-0  23441-3 0  7071
2 23711 100.4500 187.5819 0367947 202.4149 218.7426 13.12644870896541
Epoch (UTC): 21 July 2014 20:22:08
Eccentricity: 0.0367947
inclination: 100.4500°
perigee height: 933 km
apogee height: 1492 km
right ascension of ascending node: 187.5819°
argument of perigee: 202.4149°
revolutions per day: 13.12644870
mean anomaly at epoch: 218.7426°
orbit number at epoch: 89654

The dashed part of the orbit path shows where the satellite is in the earth's shadow,  

DLR